Time,TemperatureF,DewpointF,PressureIn,WindDirection,WindDirectionDegrees,WindSpeedMPH,WindSpeedGustMPH,Humidity,HourlyPrecipIn,Conditions,Clouds,dailyrainin,SoftwareType,DateUTC
2013-05-02 00:02:00,67.6,65.8,29.89,ENE,59,4.0,5.0,94,0.00,,,0.10,meteohub,2013-05-02 05:02:00,
2013-05-02 00:07:00,67.5,65.3,29.89,ENE,75,3.0,7.0,93,0.00,,,0.00,meteohub,2013-05-02 05:07:00,
2013-05-02 00:12:00,67.5,65.3,29.89,ENE,71,0.0,7.0,93,0.00,,,0.00,meteohub,2013-05-02 05:12:00,
2013-05-02 00:17:00,67.5,65.3,29.89,ENE,71,2.0,7.0,93,0.00,,,0.00,meteohub,2013-05-02 05:17:00,
2013-05-02 00:22:00,67.5,65.3,29.90,ENE,71,3.0,6.0,93,0.00,,,0.00,meteohub,2013-05-02 05:22:00,
2013-05-02 00:27:00,67.5,65.3,29.89,ENE,60,3.0,5.0,93,0.00,,,0.00,meteohub,2013-05-02 05:27:00,
2013-05-02 00:32:00,67.3,65.1,29.89,NE,44,2.0,7.0,93,0.00,,,0.00,meteohub,2013-05-02 05:32:00,
2013-05-02 00:37:00,67.3,65.1,29.89,ENE,76,1.0,7.0,93,0.00,,,0.00,meteohub,2013-05-02 05:37:00,
2013-05-02 00:42:00,67.3,65.1,29.89,ENE,75,3.0,7.0,93,0.00,,,0.00,meteohub,2013-05-02 05:42:00,
2013-05-02 00:47:00,67.3,65.1,29.88,ENE,62,3.0,5.0,93,0.00,,,0.00,meteohub,2013-05-02 05:47:00,
2013-05-02 00:52:00,67.1,64.9,29.88,ENE,71,5.0,5.0,93,0.00,,,0.00,meteohub,2013-05-02 05:52:00,
2013-05-02 00:57:00,66.9,64.8,29.87,ENE,65,9.0,10.0,93,0.00,,,0.00,meteohub,2013-05-02 05:57:00,
2013-05-02 01:02:00,66.9,64.8,29.87,ENE,70,3.0,12.0,93,0.00,,,0.00,meteohub,2013-05-02 06:02:00,
2013-05-02 01:07:00,66.9,64.8,29.87,East,87,1.0,12.0,93,0.00,,,0.00,meteohub,2013-05-02 06:07:00,
2013-05-02 01:13:00,66.7,64.6,29.87,ENE,76,3.0,12.0,93,0.00,,,0.00,meteohub,2013-05-02 06:13:00,
2013-05-02 01:18:00,66.7,64.9,29.87,ENE,66,0.0,10.0,94,0.00,,,0.00,meteohub,2013-05-02 06:18:00,
2013-05-02 01:23:00,66.7,64.9,29.87,NE,43,1.0,7.0,94,0.00,,,0.00,meteohub,2013-05-02 06:23:00,
2013-05-02 01:28:00,66.7,64.9,29.87,ENE,66,0.0,7.0,94,0.00,,,0.00,meteohub,2013-05-02 06:28:00,
2013-05-02 01:33:00,66.7,64.9,29.87,ENE,65,2.0,5.0,94,0.00,,,0.00,meteohub,2013-05-02 06:33:00,
2013-05-02 01:38:00,66.7,64.9,29.87,East,94,6.0,7.0,94,0.00,,,0.00,meteohub,2013-05-02 06:38:00,
2013-05-02 01:43:00,66.6,64.8,29.87,ENE,66,0.0,7.0,94,0.00,,,0.00,meteohub,2013-05-02 06:43:00,
2013-05-02 01:48:00,66.6,64.8,29.87,ENE,78,2.0,7.0,94,0.00,,,0.00,meteohub,2013-05-02 06:48:00,
2013-05-02 01:53:00,66.6,64.8,29.87,ENE,73,0.0,7.0,94,0.00,,,0.00,meteohub,2013-05-02 06:53:00,
2013-05-02 01:58:00,66.6,64.8,29.87,ENE,63,1.0,5.0,94,0.00,,,0.00,meteohub,2013-05-02 06:58:00,
2013-05-02 02:03:00,66.6,64.8,29.87,NE,41,2.0,5.0,94,0.00,,,0.00,meteohub,2013-05-02 07:03:00,
2013-05-02 02:08:00,66.4,64.6,29.87,ENE,65,3.0,5.0,94,0.00,,,0.00,meteohub,2013-05-02 07:08:00,
2013-05-02 02:13:00,66.4,64.6,29.87,NE,52,0.0,5.0,94,0.00,,,0.00,meteohub,2013-05-02 07:13:00,
2013-05-02 02:18:00,66.4,64.6,29.87,NE,52,1.0,5.0,94,0.00,,,0.00,meteohub,2013-05-02 07:18:00,
2013-05-02 02:23:00,66.4,64.6,29.87,NE,52,0.0,5.0,94,0.00,,,0.00,meteohub,2013-05-02 07:23:00,
2013-05-02 02:28:00,66.2,64.4,29.87,NE,54,0.0,3.0,94,0.00,,,0.00,meteohub,2013-05-02 07:28:00,
2013-05-02 02:33:00,66.2,64.8,29.87,NE,54,0.0,2.0,95,0.00,,,0.00,meteohub,2013-05-02 07:33:00,
2013-05-02 02:38:00,66.0,64.6,29.87,ENE,76,1.0,2.0,95,0.00,,,0.00,meteohub,2013-05-02 07:38:00,
2013-05-02 02:43:00,66.0,64.6,29.87,ENE,78,0.0,3.0,95,0.00,,,0.00,meteohub,2013-05-02 07:43:00,
2013-05-02 02:48:00,66.0,64.6,29.88,WNW,289,0.0,6.0,95,0.00,,,0.00,meteohub,2013-05-02 07:48:00,
2013-05-02 02:53:00,66.0,64.6,29.88,WNW,289,0.0,6.0,95,0.00,,,0.00,meteohub,2013-05-02 07:53:00,
2013-05-02 02:58:00,66.0,64.2,29.88,WNW,289,0.0,6.0,94,0.00,,,0.00,meteohub,2013-05-02 07:58:00,
2013-05-02 03:03:00,66.0,64.2,29.87,WNW,289,1.0,2.0,94,0.00,,,0.00,meteohub,2013-05-02 08:03:00,
2013-05-02 03:08:00,66.0,64.2,29.88,WNW,289,0.0,2.0,94,0.00,,,0.00,meteohub,2013-05-02 08:08:00,
2013-05-02 03:13:00,66.0,64.6,29.88,WNW,289,0.0,2.0,95,0.00,,,0.00,meteohub,2013-05-02 08:13:00,
2013-05-02 03:18:00,66.0,64.6,29.88,WNW,289,0.0,2.0,95,0.00,,,0.00,meteohub,2013-05-02 08:18:00,
2013-05-02 03:23:00,66.0,64.2,29.88,WNW,289,0.0,1.0,94,0.00,,,0.00,meteohub,2013-05-02 08:23:00,
2013-05-02 03:28:00,66.0,64.6,29.88,WNW,289,0.0,1.0,95,0.00,,,0.00,meteohub,2013-05-02 08:28:00,
2013-05-02 03:33:00,66.0,64.6,29.88,WNW,289,0.0,0.0,95,0.00,,,0.00,meteohub,2013-05-02 08:33:00,
2013-05-02 03:38:00,66.0,64.6,29.88,WNW,289,0.0,0.0,95,0.00,,,0.00,meteohub,2013-05-02 08:38:00,
2013-05-02 03:43:00,66.0,64.6,29.88,WNW,289,0.0,0.0,95,0.00,,,0.00,meteohub,2013-05-02 08:43:00,
2013-05-02 03:48:00,66.0,64.6,29.88,WNW,289,0.0,0.0,95,0.00,,,0.00,meteohub,2013-05-02 08:48:00,
2013-05-02 03:53:00,66.0,64.6,29.88,WNW,289,0.0,0.0,95,0.00,,,0.00,meteohub,2013-05-02 08:53:00,
2013-05-02 03:58:00,66.0,64.6,29.88,WNW,289,0.0,0.0,95,0.00,,,0.00,meteohub,2013-05-02 08:58:00,
2013-05-02 04:03:00,66.0,64.6,29.88,WNW,289,0.0,0.0,95,0.00,,,0.00,meteohub,2013-05-02 09:03:00,
2013-05-02 04:08:00,66.0,64.6,29.88,WNW,289,0.0,0.0,95,0.00,,,0.00,meteohub,2013-05-02 09:08:00,
2013-05-02 04:13:00,66.0,64.6,29.88,WNW,289,1.0,0.0,95,0.00,,,0.00,meteohub,2013-05-02 09:13:00,
2013-05-02 04:18:00,66.0,64.6,29.88,WNW,289,1.0,2.0,95,0.00,,,0.00,meteohub,2013-05-02 09:18:00,
2013-05-02 04:23:00,65.8,64.6,29.88,WNW,289,0.0,2.0,96,0.00,,,0.00,meteohub,2013-05-02 09:23:00,
2013-05-02 04:28:00,65.8,64.6,29.88,WNW,289,0.0,2.0,96,0.00,,,0.00,meteohub,2013-05-02 09:28:00,
2013-05-02 04:33:00,65.8,64.6,29.88,WNW,289,0.0,2.0,96,0.00,,,0.00,meteohub,2013-05-02 09:33:00,
2013-05-02 04:38:00,65.8,64.6,29.88,WNW,289,1.0,1.0,96,0.00,,,0.00,meteohub,2013-05-02 09:38:00,
2013-05-02 04:43:00,65.8,64.6,29.88,WNW,289,1.0,2.0,96,0.00,,,0.00,meteohub,2013-05-02 09:43:00,
2013-05-02 04:48:00,65.8,64.6,29.88,WNW,289,0.0,2.0,96,0.00,,,0.00,meteohub,2013-05-02 09:48:00,
2013-05-02 04:53:00,65.8,64.6,29.88,WNW,289,2.0,2.0,96,0.00,,,0.00,meteohub,2013-05-02 09:53:00,
2013-05-02 04:58:00,65.7,64.4,29.88,WNW,289,0.0,2.0,96,0.00,,,0.00,meteohub,2013-05-02 09:58:00,
2013-05-02 05:03:00,65.7,64.4,29.88,WNW,289,0.0,3.0,96,0.00,,,0.00,meteohub,2013-05-02 10:03:00,
2013-05-02 05:08:00,65.5,64.2,29.89,WNW,289,0.0,3.0,96,0.00,,,0.00,meteohub,2013-05-02 10:08:00,
2013-05-02 05:13:00,65.5,64.2,29.89,WNW,289,0.0,2.0,96,0.00,,,0.00,meteohub,2013-05-02 10:13:00,
2013-05-02 05:18:00,65.5,64.6,29.89,WNW,289,0.0,0.0,97,0.00,,,0.00,meteohub,2013-05-02 10:18:00,
2013-05-02 05:24:00,65.5,64.6,29.89,WNW,289,0.0,0.0,97,0.00,,,0.00,meteohub,2013-05-02 10:24:00,
2013-05-02 05:29:00,65.3,64.4,29.89,WNW,289,0.0,0.0,97,0.00,,,0.00,meteohub,2013-05-02 10:29:00,
2013-05-02 05:34:00,65.3,64.4,29.89,WNW,289,0.0,1.0,97,0.00,,,0.00,meteohub,2013-05-02 10:34:00,
2013-05-02 05:39:00,65.1,64.2,29.89,WNW,291,0.0,1.0,97,0.00,,,0.00,meteohub,2013-05-02 10:39:00,
2013-05-02 05:44:00,65.1,64.2,29.89,WNW,291,0.0,1.0,97,0.00,,,0.00,meteohub,2013-05-02 10:44:00,
2013-05-02 05:49:00,64.9,64.0,29.89,WNW,291,0.0,1.0,97,0.00,,,0.00,meteohub,2013-05-02 10:49:00,
2013-05-02 05:54:00,64.9,64.0,29.90,WNW,291,0.0,1.0,97,0.00,,,0.00,meteohub,2013-05-02 10:54:00,
2013-05-02 05:59:00,64.9,64.0,29.90,WNW,291,0.0,1.0,97,0.00,,,0.00,meteohub,2013-05-02 10:59:00,
2013-05-02 06:04:00,64.9,64.0,29.90,WNW,291,0.0,0.0,97,0.00,,,0.00,meteohub,2013-05-02 11:04:00,
2013-05-02 06:09:00,64.8,63.9,29.90,WNW,291,0.0,0.0,97,0.00,,,0.00,meteohub,2013-05-02 11:09:00,
2013-05-02 06:14:00,64.8,63.9,29.90,WNW,291,0.0,1.0,97,0.00,,,0.00,meteohub,2013-05-02 11:14:00,
2013-05-02 06:19:00,64.6,63.7,29.90,WNW,291,0.0,1.0,97,0.00,,,0.00,meteohub,2013-05-02 11:19:00,
2013-05-02 06:24:00,64.6,63.7,29.90,WNW,291,0.0,0.0,97,0.00,,,0.00,meteohub,2013-05-02 11:24:00,
2013-05-02 06:29:00,64.4,63.5,29.91,WNW,291,0.0,0.0,97,0.00,,,0.00,meteohub,2013-05-02 11:29:00,
2013-05-02 06:34:00,64.4,63.9,29.91,WNW,291,0.0,0.0,98,0.00,,,0.00,meteohub,2013-05-02 11:34:00,
2013-05-02 06:39:00,64.4,63.9,29.91,WNW,291,0.0,0.0,98,0.00,,,0.00,meteohub,2013-05-02 11:39:00,
2013-05-02 06:44:00,64.4,63.9,29.91,WNW,291,1.0,1.0,98,0.00,,,0.00,meteohub,2013-05-02 11:44:00,
2013-05-02 06:49:00,64.4,63.9,29.92,WNW,291,0.0,1.0,98,0.00,,,0.00,meteohub,2013-05-02 11:49:00,
2013-05-02 06:54:00,64.6,64.0,29.92,WNW,291,1.0,1.0,98,0.00,,,0.00,meteohub,2013-05-02 11:54:00,
2013-05-02 06:59:00,64.6,64.0,29.92,WNW,291,0.0,2.0,98,0.00,,,0.00,meteohub,2013-05-02 11:59:00,
2013-05-02 07:04:00,64.6,64.0,29.92,WNW,291,0.0,2.0,98,0.00,,,0.00,meteohub,2013-05-02 12:04:00,
2013-05-02 07:09:00,64.8,64.4,29.92,WNW,291,0.0,2.0,99,0.00,,,0.00,meteohub,2013-05-02 12:09:00,
2013-05-02 07:14:00,64.8,64.4,29.92,WNW,291,0.0,2.0,99,0.00,,,0.00,meteohub,2013-05-02 12:14:00,
2013-05-02 07:19:00,64.9,64.6,29.93,WNW,291,0.0,2.0,99,0.00,,,0.00,meteohub,2013-05-02 12:19:00,
2013-05-02 07:24:00,64.9,64.6,29.93,WNW,291,0.0,2.0,99,0.00,,,0.00,meteohub,2013-05-02 12:24:00,
2013-05-02 07:29:00,65.1,64.8,29.93,WNW,291,0.0,2.0,99,0.00,,,0.00,meteohub,2013-05-02 12:29:00,
2013-05-02 07:34:00,65.1,64.6,29.93,WNW,291,0.0,0.0,98,0.00,,,0.00,meteohub,2013-05-02 12:34:00,
2013-05-02 07:39:00,65.1,64.6,29.93,WNW,291,0.0,0.0,98,0.00,,,0.00,meteohub,2013-05-02 12:39:00,
2013-05-02 07:44:00,65.3,64.8,29.93,WNW,291,0.0,1.0,98,0.00,,,0.00,meteohub,2013-05-02 12:44:00,
2013-05-02 07:49:00,65.3,64.8,29.94,WNW,291,0.0,2.0,98,0.00,,,0.00,meteohub,2013-05-02 12:49:00,
2013-05-02 07:54:00,65.5,64.9,29.93,WNW,291,0.0,2.0,98,0.00,,,0.00,meteohub,2013-05-02 12:54:00,
2013-05-02 07:59:00,65.5,64.9,29.94,WNW,291,0.0,1.0,98,0.00,,,0.00,meteohub,2013-05-02 12:59:00,
2013-05-02 08:04:00,65.5,64.9,29.94,WNW,291,0.0,1.0,98,0.00,,,0.00,meteohub,2013-05-02 13:04:00,
2013-05-02 08:09:00,65.7,65.1,29.94,WNW,291,0.0,2.0,98,0.00,,,0.00,meteohub,2013-05-02 13:09:00,
2013-05-02 08:14:00,65.7,65.1,29.94,SW,229,2.0,2.0,98,0.00,,,0.00,meteohub,2013-05-02 13:14:00,
2013-05-02 08:19:00,65.7,65.1,29.94,SW,229,0.0,2.0,98,0.00,,,0.00,meteohub,2013-05-02 13:19:00,
2013-05-02 08:24:00,65.7,65.1,29.94,SW,229,0.0,3.0,98,0.00,,,0.00,meteohub,2013-05-02 13:24:00,
2013-05-02 08:29:00,65.8,65.3,29.94,SW,229,1.0,3.0,98,0.00,,,0.00,meteohub,2013-05-02 13:29:00,
2013-05-02 08:34:00,65.8,65.3,29.94,SW,229,1.0,1.0,98,0.00,,,0.00,meteohub,2013-05-02 13:34:00,
2013-05-02 08:39:00,66.0,65.5,29.94,SW,229,1.0,2.0,98,0.00,,,0.00,meteohub,2013-05-02 13:39:00,
2013-05-02 08:44:00,66.2,65.7,29.94,SW,232,0.0,2.0,98,0.00,,,0.00,meteohub,2013-05-02 13:44:00,
2013-05-02 08:49:00,66.6,65.7,29.94,SW,232,0.0,2.0,97,0.00,,,0.00,meteohub,2013-05-02 13:49:00,
2013-05-02 08:54:00,66.7,65.5,29.94,SW,232,0.0,3.0,96,0.00,,,0.00,meteohub,2013-05-02 13:54:00,
2013-05-02 08:59:00,66.9,65.7,29.94,WNW,292,2.0,3.0,96,0.00,,,0.00,meteohub,2013-05-02 13:59:00,
2013-05-02 09:04:00,66.9,65.5,29.94,NW,326,0.0,4.0,95,0.00,,,0.00,meteohub,2013-05-02 14:04:00,
2013-05-02 09:09:00,67.1,65.7,29.94,NNW,344,1.0,5.0,95,0.00,,,0.00,meteohub,2013-05-02 14:09:00,
2013-05-02 09:14:00,67.3,65.5,29.94,North,355,2.0,5.0,94,0.00,,,0.00,meteohub,2013-05-02 14:14:00,
2013-05-02 09:19:00,67.5,66.0,29.94,West,275,0.0,5.0,95,0.00,,,0.00,meteohub,2013-05-02 14:19:00,
2013-05-02 09:24:00,67.6,65.5,29.94,NNW,327,2.0,3.0,93,0.00,,,0.00,meteohub,2013-05-02 14:24:00,
2013-05-02 09:29:00,67.8,65.7,29.94,SSE,159,2.0,3.0,93,0.00,,,0.00,meteohub,2013-05-02 14:29:00,
2013-05-02 09:34:00,68.2,66.0,29.94,North,355,2.0,4.0,93,0.00,,,0.00,meteohub,2013-05-02 14:34:00,
2013-05-02 09:39:00,68.2,65.8,29.94,NNW,344,2.0,4.0,92,0.00,,,0.00,meteohub,2013-05-02 14:39:00,
2013-05-02 09:45:00,68.4,66.0,29.94,WNW,287,4.0,4.0,92,0.00,,,0.00,meteohub,2013-05-02 14:45:00,
2013-05-02 09:50:00,68.5,66.2,29.94,NNW,336,1.0,5.0,92,0.00,,,0.00,meteohub,2013-05-02 14:50:00,
2013-05-02 09:55:00,68.7,66.4,29.94,WNW,292,2.0,5.0,92,0.00,,,0.00,meteohub,2013-05-02 14:55:00,
2013-05-02 10:00:00,68.7,66.0,29.94,West,262,0.0,5.0,91,0.00,,,0.00,meteohub,2013-05-02 15:00:00,
2013-05-02 10:05:00,69.1,66.0,29.94,NNW,327,3.0,4.0,90,0.00,,,0.00,meteohub,2013-05-02 15:05:00,
2013-05-02 10:10:00,69.3,65.8,29.94,NW,324,3.0,4.0,89,0.00,,,0.00,meteohub,2013-05-02 15:10:00,
2013-05-02 10:15:00,69.4,66.4,29.95,NNW,329,0.0,5.0,90,0.00,,,0.00,meteohub,2013-05-02 15:15:00,
2013-05-02 10:20:00,69.6,66.2,29.95,WNW,294,2.0,5.0,89,0.00,,,0.00,meteohub,2013-05-02 15:20:00,
2013-05-02 10:25:00,69.6,65.8,29.95,WNW,294,0.0,4.0,88,0.00,,,0.00,meteohub,2013-05-02 15:25:00,
2013-05-02 10:30:00,69.6,66.2,29.95,WNW,295,0.0,4.0,89,0.00,,,0.00,meteohub,2013-05-02 15:30:00,
2013-05-02 10:35:00,69.4,65.7,29.95,NE,52,0.0,2.0,88,0.00,,,0.00,meteohub,2013-05-02 15:35:00,
2013-05-02 10:40:00,69.4,66.0,29.96,NNW,332,2.0,3.0,89,0.00,,,0.00,meteohub,2013-05-02 15:40:00,
2013-05-02 10:45:00,69.6,66.2,29.96,ENE,77,1.0,3.0,89,0.00,,,0.00,meteohub,2013-05-02 15:45:00,
2013-05-02 10:50:00,69.6,65.8,29.96,ENE,60,2.0,3.0,88,0.00,,,0.00,meteohub,2013-05-02 15:50:00,
2013-05-02 10:55:00,69.8,66.0,29.96,NNW,348,0.0,3.0,88,0.00,,,0.00,meteohub,2013-05-02 15:55:00,
2013-05-02 11:00:00,70.3,66.2,29.96,NW,323,1.0,3.0,87,0.00,,,0.00,meteohub,2013-05-02 16:00:00,
2013-05-02 11:05:00,71.2,66.6,29.96,NE,51,3.0,6.0,85,0.00,,,0.00,meteohub,2013-05-02 16:05:00,
2013-05-02 11:10:00,71.8,67.1,29.96,West,281,2.0,6.0,85,0.00,,,0.00,meteohub,2013-05-02 16:10:00,
2013-05-02 11:15:00,72.9,66.7,29.95,West,277,1.0,6.0,81,0.00,,,0.00,meteohub,2013-05-02 16:15:00,
2013-05-02 11:20:00,74.1,68.2,29.95,WNW,296,7.0,7.0,82,0.00,,,0.00,meteohub,2013-05-02 16:20:00,
2013-05-02 11:25:00,73.8,66.4,29.95,NW,306,6.0,7.0,78,0.00,,,0.00,meteohub,2013-05-02 16:25:00,
2013-05-02 11:30:00,72.7,66.2,29.95,West,275,4.0,8.0,80,0.00,,,0.00,meteohub,2013-05-02 16:30:00,
2013-05-02 11:35:00,72.3,66.2,29.95,WNW,302,4.0,8.0,81,0.00,,,0.00,meteohub,2013-05-02 16:35:00,
2013-05-02 11:40:00,72.5,66.4,29.95,West,281,5.0,7.0,81,0.00,,,0.00,meteohub,2013-05-02 16:40:00,
2013-05-02 11:45:00,72.3,66.2,29.95,NNW,346,3.0,7.0,81,0.00,,,0.00,meteohub,2013-05-02 16:45:00,
2013-05-02 11:50:00,72.3,66.9,29.94,West,266,1.0,7.0,83,0.00,,,0.00,meteohub,2013-05-02 16:50:00,
2013-05-02 11:55:00,72.7,66.6,29.94,NW,309,2.0,7.0,81,0.00,,,0.00,meteohub,2013-05-02 16:55:00,
2013-05-02 12:00:00,72.9,66.4,29.94,ESE,117,1.0,6.0,80,0.00,,,0.00,meteohub,2013-05-02 17:00:00,
2013-05-02 12:05:00,73.6,67.5,29.94,WNW,294,2.0,5.0,81,0.00,,,0.00,meteohub,2013-05-02 17:05:00,
2013-05-02 12:10:00,74.7,67.6,29.94,NW,313,3.0,5.0,79,0.00,,,0.00,meteohub,2013-05-02 17:10:00,
2013-05-02 12:15:00,74.8,68.2,29.94,NNW,348,4.0,8.0,80,0.00,,,0.00,meteohub,2013-05-02 17:15:00,
2013-05-02 12:20:00,74.3,68.0,29.94,North,349,1.0,10.0,81,0.00,,,0.00,meteohub,2013-05-02 17:20:00,
2013-05-02 12:25:00,73.8,67.3,29.94,WNW,286,5.0,12.0,80,0.00,,,0.00,meteohub,2013-05-02 17:25:00,
2013-05-02 12:30:00,74.1,68.0,29.94,West,269,4.0,12.0,81,0.00,,,0.00,meteohub,2013-05-02 17:30:00,
2013-05-02 12:35:00,74.3,67.6,29.94,NNW,334,2.0,9.0,80,0.00,,,0.00,meteohub,2013-05-02 17:35:00,
2013-05-02 12:40:00,73.8,68.0,29.94,NNW,328,4.0,9.0,82,0.00,,,0.00,meteohub,2013-05-02 17:40:00,
2013-05-02 12:45:00,73.6,67.1,29.94,West,273,1.0,9.0,80,0.00,,,0.00,meteohub,2013-05-02 17:45:00,
2013-05-02 12:50:00,73.2,67.1,29.93,West,267,3.0,9.0,81,0.00,,,0.00,meteohub,2013-05-02 17:50:00,
2013-05-02 12:55:00,73.6,67.8,29.93,WNW,283,2.0,8.0,82,0.00,,,0.00,meteohub,2013-05-02 17:55:00,
2013-05-02 13:00:00,74.8,67.5,29.92,NE,56,2.0,7.0,78,0.00,,,0.00,meteohub,2013-05-02 18:00:00,
2013-05-02 13:05:00,75.0,68.0,29.92,NNW,343,3.0,7.0,79,0.00,,,0.00,meteohub,2013-05-02 18:05:00,
2013-05-02 13:10:00,74.7,67.6,29.92,ENE,69,1.0,9.0,79,0.00,,,0.00,meteohub,2013-05-02 18:10:00,
2013-05-02 13:15:00,74.8,67.5,29.92,NE,39,0.0,9.0,78,0.00,,,0.00,meteohub,2013-05-02 18:15:00,
2013-05-02 13:20:00,74.8,67.8,29.92,NE,53,5.0,6.0,79,0.00,,,0.00,meteohub,2013-05-02 18:20:00,
2013-05-02 13:25:00,74.5,67.5,29.92,ENE,60,1.0,7.0,79,0.00,,,0.00,meteohub,2013-05-02 18:25:00,
2013-05-02 13:30:00,74.5,68.2,29.92,NW,304,1.0,7.0,81,0.00,,,0.00,meteohub,2013-05-02 18:30:00,
2013-05-02 13:35:00,75.4,68.4,29.92,NNW,329,3.0,7.0,79,0.00,,,0.00,meteohub,2013-05-02 18:35:00,
2013-05-02 13:40:00,76.5,68.7,29.92,East,96,3.0,9.0,77,0.00,,,0.00,meteohub,2013-05-02 18:40:00,
2013-05-02 13:46:00,77.2,67.5,29.91,NE,49,1.0,9.0,72,0.00,,,0.00,meteohub,2013-05-02 18:46:00,
2013-05-02 13:51:00,77.5,68.2,29.92,NE,45,3.0,9.0,73,0.00,,,0.00,meteohub,2013-05-02 18:51:00,
2013-05-02 13:56:00,76.6,67.6,29.92,NNW,348,5.0,7.0,74,0.00,,,0.00,meteohub,2013-05-02 18:56:00,
2013-05-02 14:01:00,76.1,68.0,29.92,SW,233,1.0,6.0,76,0.00,,,0.00,meteohub,2013-05-02 19:01:00,
2013-05-02 14:06:00,76.6,68.2,29.92,NW,323,2.0,6.0,75,0.00,,,0.00,meteohub,2013-05-02 19:06:00,
2013-05-02 14:11:00,76.8,67.8,29.92,NE,41,3.0,6.0,74,0.00,,,0.00,meteohub,2013-05-02 19:11:00,
2013-05-02 14:16:00,76.8,67.8,29.92,East,80,3.0,7.0,74,0.00,,,0.00,meteohub,2013-05-02 19:16:00,
2013-05-02 14:21:00,76.8,67.8,29.92,East,83,5.0,8.0,74,0.00,,,0.00,meteohub,2013-05-02 19:21:00,
2013-05-02 14:26:00,77.2,67.8,29.91,ESE,122,4.0,8.0,73,0.00,,,0.00,meteohub,2013-05-02 19:26:00,
2013-05-02 14:31:00,77.2,67.5,29.92,NE,37,2.0,8.0,72,0.00,,,0.00,meteohub,2013-05-02 19:31:00,
2013-05-02 14:36:00,76.8,67.5,29.91,East,86,1.0,7.0,73,0.00,,,0.00,meteohub,2013-05-02 19:36:00,
2013-05-02 14:41:00,76.5,67.6,29.92,NW,306,2.0,6.0,74,0.00,,,0.00,meteohub,2013-05-02 19:41:00,
2013-05-02 14:46:00,76.3,67.8,29.92,North,350,5.0,6.0,75,0.00,,,0.00,meteohub,2013-05-02 19:46:00,
2013-05-02 14:51:00,75.9,67.1,29.92,NW,326,1.0,6.0,74,0.00,,,0.00,meteohub,2013-05-02 19:51:00,
2013-05-02 14:56:00,75.7,67.3,29.92,WNW,286,0.0,6.0,75,0.00,,,0.00,meteohub,2013-05-02 19:56:00,
2013-05-02 15:01:00,75.9,67.5,29.92,NNW,345,0.0,6.0,75,0.00,,,0.00,meteohub,2013-05-02 20:01:00,
2013-05-02 15:06:00,76.3,67.8,29.91,NW,313,1.0,5.0,75,0.00,,,0.00,meteohub,2013-05-02 20:06:00,
2013-05-02 15:11:00,76.3,68.2,29.91,WNW,284,7.0,9.0,76,0.00,,,0.00,meteohub,2013-05-02 20:11:00,
2013-05-02 15:16:00,76.5,68.7,29.91,West,260,5.0,9.0,77,0.00,,,0.00,meteohub,2013-05-02 20:16:00,
2013-05-02 15:21:00,76.6,67.6,29.91,WSW,252,5.0,9.0,74,0.00,,,0.00,meteohub,2013-05-02 20:21:00,
2013-05-02 15:26:00,76.8,67.8,29.91,WNW,290,4.0,8.0,74,0.00,,,0.00,meteohub,2013-05-02 20:26:00,
2013-05-02 15:31:00,77.2,67.1,29.91,NW,316,7.0,8.0,71,0.00,,,0.00,meteohub,2013-05-02 20:31:00,
2013-05-02 15:36:00,77.2,67.8,29.91,NNW,331,3.0,8.0,73,0.00,,,0.00,meteohub,2013-05-02 20:36:00,
2013-05-02 15:41:00,77.0,68.5,29.90,WSW,258,5.0,8.0,75,0.00,,,0.00,meteohub,2013-05-02 20:41:00,
2013-05-02 15:46:00,77.2,69.4,29.90,WNW,286,5.0,9.0,77,0.00,,,0.00,meteohub,2013-05-02 20:46:00,
2013-05-02 15:51:00,78.1,69.4,29.90,West,278,5.0,9.0,75,0.00,,,0.00,meteohub,2013-05-02 20:51:00,
2013-05-02 15:56:00,77.7,68.0,29.90,WNW,300,6.0,13.0,72,0.00,,,0.00,meteohub,2013-05-02 20:56:00,
2013-05-02 16:01:00,78.3,68.9,29.90,WNW,294,5.0,13.0,73,0.00,,,0.00,meteohub,2013-05-02 21:01:00,
2013-05-02 16:06:00,78.3,68.9,29.90,WNW,283,7.0,13.0,73,0.00,,,0.00,meteohub,2013-05-02 21:06:00,
2013-05-02 16:11:00,77.7,68.4,29.90,NNW,331,6.0,14.0,73,0.00,,,0.00,meteohub,2013-05-02 21:11:00,
2013-05-02 16:16:00,77.2,68.2,29.90,WNW,289,8.0,14.0,74,0.00,,,0.00,meteohub,2013-05-02 21:16:00,
2013-05-02 16:21:00,77.9,68.9,29.90,North,350,3.0,14.0,74,0.00,,,0.00,meteohub,2013-05-02 21:21:00,
2013-05-02 16:27:00,78.3,68.5,29.90,WNW,299,5.0,13.0,72,0.00,,,0.00,meteohub,2013-05-02 21:27:00,
2013-05-02 16:32:00,78.4,68.2,29.90,North,11,5.0,11.0,71,0.00,,,0.00,meteohub,2013-05-02 21:32:00,
2013-05-02 16:37:00,77.5,68.2,29.90,WNW,294,3.0,10.0,73,0.00,,,0.00,meteohub,2013-05-02 21:37:00,
2013-05-02 16:42:00,76.6,68.5,29.90,NW,309,3.0,12.0,76,0.00,,,0.00,meteohub,2013-05-02 21:42:00,
2013-05-02 16:47:00,76.5,68.4,29.91,West,281,2.0,12.0,76,0.00,,,0.00,meteohub,2013-05-02 21:47:00,
2013-05-02 16:52:00,75.9,68.2,29.90,ENE,69,2.0,10.0,77,0.00,,,0.00,meteohub,2013-05-02 21:52:00,
2013-05-02 16:57:00,75.6,68.2,29.91,NE,53,0.0,6.0,78,0.00,,,0.00,meteohub,2013-05-02 21:57:00,
2013-05-02 17:02:00,75.4,68.7,29.91,ENE,57,7.0,7.0,80,0.00,,,0.00,meteohub,2013-05-02 22:02:00,
2013-05-02 17:07:00,73.9,68.2,29.91,ENE,69,2.0,10.0,82,0.00,,,0.00,meteohub,2013-05-02 22:07:00,
2013-05-02 17:12:00,72.9,67.8,29.91,ENE,65,7.0,11.0,84,0.00,,,0.00,meteohub,2013-05-02 22:12:00,
2013-05-02 17:17:00,72.3,67.8,29.91,ENE,63,4.0,11.0,86,0.00,,,0.00,meteohub,2013-05-02 22:17:00,
2013-05-02 17:22:00,72.1,68.0,29.91,ENE,72,7.0,9.0,87,0.00,,,0.00,meteohub,2013-05-02 22:22:00,
2013-05-02 17:27:00,72.0,68.2,29.91,ENE,59,3.0,9.0,88,0.00,,,0.00,meteohub,2013-05-02 22:27:00,
2013-05-02 17:32:00,72.0,68.2,29.91,NNE,20,1.0,9.0,88,0.00,,,0.00,meteohub,2013-05-02 22:32:00,
2013-05-02 17:37:00,72.0,68.2,29.91,NNE,23,1.0,9.0,88,0.00,,,0.00,meteohub,2013-05-02 22:37:00,
2013-05-02 17:42:00,72.1,68.0,29.91,ENE,59,2.0,9.0,87,0.00,,,0.00,meteohub,2013-05-02 22:42:00,
2013-05-02 17:47:00,72.3,67.8,29.91,NE,46,2.0,9.0,86,0.00,,,0.00,meteohub,2013-05-02 22:47:00,
2013-05-02 17:52:00,72.1,67.6,29.91,ENE,67,1.0,7.0,86,0.00,,,0.00,meteohub,2013-05-02 22:52:00,
2013-05-02 17:57:00,72.0,68.2,29.91,NE,53,1.0,8.0,88,0.00,,,0.00,meteohub,2013-05-02 22:57:00,
2013-05-02 18:02:00,71.6,67.8,29.91,NW,319,0.0,8.0,88,0.00,,,0.00,meteohub,2013-05-02 23:02:00,
2013-05-02 18:07:00,71.4,68.0,29.91,NNW,341,0.0,8.0,89,0.00,,,0.00,meteohub,2013-05-02 23:07:00,
2013-05-02 18:12:00,71.2,67.8,29.91,North,350,2.0,7.0,89,0.00,,,0.00,meteohub,2013-05-02 23:12:00,
2013-05-02 18:17:00,71.2,68.2,29.91,NNW,331,2.0,6.0,90,0.00,,,0.00,meteohub,2013-05-02 23:17:00,
2013-05-02 18:22:00,71.1,68.0,29.92,NNW,331,6.0,6.0,90,0.00,,,0.00,meteohub,2013-05-02 23:22:00,
2013-05-02 18:27:00,70.5,67.5,29.92,NW,321,2.0,9.0,90,0.00,,,0.00,meteohub,2013-05-02 23:27:00,
2013-05-02 18:32:00,70.3,66.9,29.92,NW,304,1.0,9.0,89,0.00,,,0.00,meteohub,2013-05-02 23:32:00,
2013-05-02 18:37:00,70.2,66.7,29.92,NNW,327,0.0,9.0,89,0.00,,,0.00,meteohub,2013-05-02 23:37:00,
2013-05-02 18:42:00,70.2,66.7,29.92,NNW,338,2.0,6.0,89,0.00,,,0.00,meteohub,2013-05-02 23:42:00,
2013-05-02 18:47:00,70.2,67.1,29.92,NW,314,1.0,6.0,90,0.00,,,0.00,meteohub,2013-05-02 23:47:00,
2013-05-02 18:52:00,70.2,67.1,29.92,WNW,289,0.0,6.0,90,0.00,,,0.00,meteohub,2013-05-02 23:52:00,
2013-05-02 18:57:00,70.3,66.9,29.92,NNW,336,1.0,5.0,89,0.00,,,0.00,meteohub,2013-05-02 23:57:00,
2013-05-02 19:02:00,70.2,66.7,29.92,North,355,1.0,6.0,89,0.00,,,0.00,meteohub,2013-05-03 00:02:00,
2013-05-02 19:07:00,70.0,66.9,29.92,WNW,289,2.0,7.0,90,0.00,,,0.00,meteohub,2013-05-03 00:07:00,
2013-05-02 19:12:00,69.6,66.6,29.92,NNW,346,3.0,7.0,90,0.00,,,0.00,meteohub,2013-05-03 00:12:00,
2013-05-02 19:17:00,69.6,66.6,29.92,ENE,71,0.0,7.0,90,0.00,,,0.00,meteohub,2013-05-03 00:17:00,
2013-05-02 19:22:00,69.4,66.7,29.92,NW,314,3.0,6.0,91,0.00,,,0.00,meteohub,2013-05-03 00:22:00,
2013-05-02 19:27:00,69.4,66.7,29.92,NW,321,8.0,8.0,91,0.00,,,0.00,meteohub,2013-05-03 00:27:00,
2013-05-02 19:32:00,69.3,66.6,29.92,WNW,303,1.0,10.0,91,0.00,,,0.00,meteohub,2013-05-03 00:32:00,
2013-05-02 19:37:00,69.3,66.6,29.92,NNW,330,4.0,10.0,91,0.00,,,0.00,meteohub,2013-05-03 00:37:00,
2013-05-02 19:42:00,69.1,66.7,29.93,WNW,302,3.0,10.0,92,0.00,,,0.00,meteohub,2013-05-03 00:42:00,
2013-05-02 19:47:00,69.1,66.7,29.93,NW,318,4.0,7.0,92,0.00,,,0.00,meteohub,2013-05-03 00:47:00,
2013-05-02 19:52:00,68.9,66.6,29.93,NNW,336,0.0,8.0,92,0.00,,,0.00,meteohub,2013-05-03 00:52:00,
2013-05-02 19:57:00,68.7,66.4,29.93,NW,322,2.0,8.0,92,0.00,,,0.00,meteohub,2013-05-03 00:57:00,
2013-05-02 20:02:00,68.7,66.6,29.93,NNW,342,0.0,8.0,93,0.00,,,0.00,meteohub,2013-05-03 01:02:00,
2013-05-02 20:07:00,68.7,66.6,29.94,NNW,329,0.0,7.0,93,0.00,,,0.00,meteohub,2013-05-03 01:07:00,
2013-05-02 20:12:00,68.5,66.4,29.94,NNW,329,0.0,6.0,93,0.00,,,0.00,meteohub,2013-05-03 01:12:00,
2013-05-02 20:17:00,68.5,66.4,29.94,WNW,297,0.0,4.0,93,0.00,,,0.00,meteohub,2013-05-03 01:17:00,
2013-05-02 20:22:00,68.5,66.4,29.94,WNW,297,1.0,3.0,93,0.00,,,0.00,meteohub,2013-05-03 01:22:00,
2013-05-02 20:27:00,68.5,66.4,29.94,WNW,297,0.0,3.0,93,0.00,,,0.00,meteohub,2013-05-03 01:27:00,
2013-05-02 20:32:00,68.4,66.6,29.94,NW,320,1.0,2.0,94,0.00,,,0.00,meteohub,2013-05-03 01:32:00,
2013-05-02 20:37:00,68.4,66.6,29.94,NNW,338,0.0,5.0,94,0.00,,,0.00,meteohub,2013-05-03 01:37:00,
2013-05-02 20:42:00,68.4,66.6,29.94,NW,317,0.0,5.0,94,0.00,,,0.00,meteohub,2013-05-03 01:42:00,
2013-05-02 20:47:00,68.4,66.6,29.94,North,351,1.0,5.0,94,0.00,,,0.00,meteohub,2013-05-03 01:47:00,
2013-05-02 20:52:00,68.4,66.6,29.94,NNW,348,1.0,5.0,94,0.00,,,0.00,meteohub,2013-05-03 01:52:00,
2013-05-02 20:57:00,68.4,66.6,29.95,NW,315,1.0,5.0,94,0.00,,,0.00,meteohub,2013-05-03 01:57:00,
2013-05-02 21:02:00,68.4,66.6,29.95,NW,315,2.0,3.0,94,0.00,,,0.00,meteohub,2013-05-03 02:02:00,
2013-05-02 21:07:00,68.4,66.6,29.95,NW,315,1.0,3.0,94,0.00,,,0.00,meteohub,2013-05-03 02:07:00,
2013-05-02 21:12:00,68.4,66.6,29.95,NW,315,1.0,3.0,94,0.00,,,0.00,meteohub,2013-05-03 02:12:00,
2013-05-02 21:17:00,68.4,66.6,29.95,NNW,344,2.0,4.0,94,0.00,,,0.00,meteohub,2013-05-03 02:17:00,
2013-05-02 21:22:00,68.4,66.9,29.95,NNW,327,0.0,5.0,95,0.00,,,0.00,meteohub,2013-05-03 02:22:00,
2013-05-02 21:27:00,68.4,66.9,29.95,NNW,332,3.0,5.0,95,0.00,,,0.00,meteohub,2013-05-03 02:27:00,
2013-05-02 21:32:00,68.4,66.9,29.95,NNW,332,1.0,5.0,95,0.00,,,0.00,meteohub,2013-05-03 02:32:00,
2013-05-02 21:37:00,68.4,66.9,29.96,NNW,333,0.0,3.0,95,0.00,,,0.00,meteohub,2013-05-03 02:37:00,
2013-05-02 21:42:00,68.4,66.9,29.96,ENE,65,0.0,3.0,95,0.00,,,0.00,meteohub,2013-05-03 02:42:00,
2013-05-02 21:47:00,68.4,66.9,29.96,NW,311,1.0,3.0,95,0.00,,,0.00,meteohub,2013-05-03 02:47:00,
2013-05-02 21:52:00,68.4,66.9,29.96,NNW,347,2.0,3.0,95,0.00,,,0.00,meteohub,2013-05-03 02:52:00,
2013-05-02 21:57:00,68.4,66.9,29.96,NNW,327,1.0,5.0,95,0.00,,,0.00,meteohub,2013-05-03 02:57:00,
2013-05-02 22:02:00,68.4,66.9,29.96,NNW,342,0.0,5.0,95,0.00,,,0.00,meteohub,2013-05-03 03:02:00,
2013-05-02 22:07:00,68.4,66.9,29.96,NNW,348,6.0,6.0,95,0.00,,,0.00,meteohub,2013-05-03 03:07:00,
2013-05-02 22:12:00,68.2,66.9,29.96,West,270,4.0,8.0,96,0.03,,,0.03,meteohub,2013-05-03 03:12:00,
2013-05-02 22:17:00,68.0,66.7,29.96,WNW,292,3.0,8.0,96,0.03,,,0.03,meteohub,2013-05-03 03:17:00,
2013-05-02 22:22:00,67.8,66.9,29.96,NW,326,2.0,8.0,97,0.03,,,0.03,meteohub,2013-05-03 03:22:00,
2013-05-02 22:27:00,67.6,66.7,29.96,WNW,287,2.0,6.0,97,0.03,,,0.03,meteohub,2013-05-03 03:27:00,
2013-05-02 22:32:00,67.6,66.7,29.96,WNW,286,2.0,5.0,97,0.03,,,0.03,meteohub,2013-05-03 03:32:00,
2013-05-02 22:37:00,67.6,66.7,29.96,WNW,289,5.0,5.0,97,0.03,,,0.03,meteohub,2013-05-03 03:37:00,
2013-05-02 22:42:00,67.6,67.1,29.96,West,272,2.0,5.0,98,0.04,,,0.04,meteohub,2013-05-03 03:42:00,
2013-05-02 22:47:00,67.6,67.1,29.96,WNW,292,4.0,6.0,98,0.04,,,0.04,meteohub,2013-05-03 03:47:00,
2013-05-02 22:52:00,67.5,66.9,29.96,NW,320,4.0,6.0,98,0.04,,,0.04,meteohub,2013-05-03 03:52:00,
2013-05-02 22:57:00,67.5,66.9,29.96,NW,311,4.0,6.0,98,0.06,,,0.06,meteohub,2013-05-03 03:57:00,
2013-05-02 23:01:00,67.5,66.9,29.96,WNW,292,2.0,6.0,98,0.08,,,0.08,meteohub,2013-05-03 04:01:00,
2013-05-02 23:06:00,67.5,66.9,29.96,West,271,4.0,6.0,98,0.09,,,0.09,meteohub,2013-05-03 04:06:00,
2013-05-02 23:11:00,67.3,66.7,29.96,WNW,294,2.0,6.0,98,0.07,,,0.10,meteohub,2013-05-03 04:11:00,
2013-05-02 23:16:00,67.1,66.6,29.96,WNW,300,4.0,6.0,98,0.07,,,0.10,meteohub,2013-05-03 04:16:00,
2013-05-02 23:21:00,67.1,66.6,29.96,West,277,4.0,6.0,98,0.08,,,0.11,meteohub,2013-05-03 04:21:00,
2013-05-02 23:26:00,67.1,66.7,29.96,West,277,2.0,6.0,99,0.08,,,0.11,meteohub,2013-05-03 04:26:00,
2013-05-02 23:32:00,67.1,66.7,29.95,NNW,340,3.0,6.0,99,0.08,,,0.11,meteohub,2013-05-03 04:32:00,
2013-05-02 23:37:00,66.9,66.6,29.95,NNW,346,0.0,6.0,99,0.07,,,0.11,meteohub,2013-05-03 04:37:00,
2013-05-02 23:42:00,67.1,66.7,29.95,NNW,346,1.0,6.0,99,0.07,,,0.11,meteohub,2013-05-03 04:42:00,
2013-05-02 23:47:00,67.1,66.7,29.95,NNW,346,0.0,6.0,99,0.07,,,0.11,meteohub,2013-05-03 04:47:00,
2013-05-02 23:52:00,67.1,66.7,29.95,NW,314,0.0,3.0,99,0.07,,,0.11,meteohub,2013-05-03 04:52:00,
2013-05-02 23:57:00,67.1,66.7,29.95,NW,305,2.0,3.0,99,0.04,,,0.11,meteohub,2013-05-03 04:57:00,